| time (UTC) | temp F | wind direction | speed MPH | gust MPH | rain 1hr in | rain 24hr in | rain mn in | humidity % | barometer mb |
| 20260505003014 | 71 | 245 | 0.0 | 10.0 | 0.00 | 0.00 | 0.00 | 57 | 1007.0 |
| 20260505001514 | 73 | 144 | 0.0 | 4.0 | 0.00 | 0.00 | 0.00 | 55 | 1006.9 |
| 20260505000014 | 74 | 240 | 0.0 | 8.0 | 0.00 | 0.00 | 0.00 | 53 | 1006.9 |
| 20260504234513 | 75 | 288 | 1.0 | 4.0 | 0.00 | 0.00 | 0.00 | 52 | 1006.8 |
| 20260504233012 | 75 | 269 | 0.0 | 2.0 | 0.00 | 0.00 | 0.00 | 51 | 1006.9 |
| 20260504231511 | 75 | 9 | 0.0 | 10.0 | 0.00 | 0.00 | 0.00 | 50 | 1006.9 |
| 20260504230012 | 76 | 219 | 2.0 | 10.0 | 0.00 | 0.00 | 0.00 | 49 | 1007.0 |
| 20260504224509 | 76 | 219 | 0.0 | 7.0 | 0.00 | 0.00 | 0.00 | 49 | 1007.0 |
| 20260504223010 | 76 | 270 | 0.0 | 7.0 | 0.00 | 0.00 | 0.00 | 51 | 1007.1 |
| 20260504221509 | 76 | 294 | 3.0 | 17.0 | 0.00 | 0.00 | 0.00 | 50 | 1007.2 |
| 20260504220018 | 76 | 265 | 1.0 | 7.0 | 0.00 | 0.00 | 0.00 | 52 | 1007.3 |
| 20260504214507 | 76 | 248 | 0.0 | 5.0 | 0.00 | 0.00 | 0.00 | 53 | 1007.3 |
| 20260504213003 | 75 | 213 | 0.0 | 9.0 | 0.00 | 0.00 | 0.00 | 55 | 1007.4 |
| 20260504211505 | 75 | 269 | 1.0 | 7.0 | 0.00 | 0.00 | 0.00 | 55 | 1007.7 |
| 20260504210003 | 75 | 249 | 2.0 | 9.0 | 0.00 | 0.00 | 0.00 | 54 | 1007.7 |
| 20260504204604 | 74 | 302 | 0.0 | 7.0 | 0.00 | 0.00 | 0.00 | 57 | 1007.7 |
| 20260504203057 | 74 | 216 | 2.0 | 10.0 | 0.00 | 0.00 | 0.00 | 57 | 1007.8 |
| 20260504201556 | 72 | 146 | 1.0 | 7.0 | 0.00 | 0.00 | 0.00 | 59 | 1008.0 |
| 20260504200053 | 72 | 256 | 0.0 | 3.0 | 0.00 | 0.00 | 0.00 | 62 | 1008.0 |
| 20260504194549 | 71 | 190 | 1.0 | 7.0 | 0.00 | 0.00 | 0.00 | 63 | 1007.9 |
| 20260504193059 | 70 | 276 | 1.0 | 7.0 | 0.00 | 0.00 | 0.00 | 65 | 1008.0 |
| 20260504191544 | 70 | 248 | 0.0 | 5.0 | 0.00 | 0.00 | 0.00 | 64 | 1008.2 |
| 20260504190044 | 68 | 211 | 1.0 | 8.0 | 0.00 | 0.00 | 0.00 | 66 | 1008.4 |
| 20260504184542 | 68 | 263 | 0.0 | 10.0 | 0.00 | 0.00 | 0.00 | 68 | 1008.5 |
| 20260504183041 | 67 | 246 | 1.0 | 5.0 | 0.00 | 0.00 | 0.00 | 69 | 1008.7 |
| 20260504181535 | 66 | 287 | 1.0 | 10.0 | 0.00 | 0.00 | 0.00 | 69 | 1008.7 |
| 20260504180040 | 66 | 211 | 1.0 | 5.0 | 0.00 | 0.00 | 0.00 | 70 | 1008.6 |
| 20260504174529 | 65 | 161 | 2.0 | 8.0 | 0.00 | 0.00 | 0.00 | 71 | 1008.6 |
| 20260504173027 | 65 | 253 | 1.0 | 7.0 | 0.00 | 0.00 | 0.00 | 72 | 1008.7 |
| 20260504171525 | 64 | 254 | 1.0 | 6.0 | 0.00 | 0.00 | 0.00 | 73 | 1008.6 |
| 20260504081520 | 55 | 134 | 0.0 | 0.0 | 0.00 | 0.00 | 0.00 | 87 | 1006.1 |
| 20260504050002 | 65 | 134 | 0.0 | 0.0 | 0.00 | 0.00 | 0.00 | 66 | 1005.8 |
| 20260504044600 | 66 | 134 | 0.0 | 0.0 | 0.00 | 0.00 | 0.00 | 64 | 1005.8 |
| 20260504043105 | 68 | 134 | 0.0 | 0.0 | 0.00 | 0.00 | 0.00 | 61 | 1005.7 |
| 20260504041600 | 70 | 134 | 0.0 | 0.0 | 0.00 | 0.00 | 0.00 | 55 | 1005.6 |
| 20260504040104 | 71 | 134 | 0.0 | 0.0 | 0.00 | 0.00 | 0.00 | 52 | 1005.5 |
| 20260504034616 | 73 | 134 | 0.0 | 0.0 | 0.00 | 0.00 | 0.00 | 50 | 1005.4 |
| 20260504033103 | 75 | 134 | 0.0 | 0.0 | 0.00 | 0.00 | 0.00 | 48 | 1005.2 |
| 20260504031603 | 76 | 134 | 0.0 | 0.0 | 0.00 | 0.00 | 0.00 | 45 | 1005.2 |
| 20260504030056 | 77 | 134 | 0.0 | 0.0 | 0.00 | 0.00 | 0.00 | 45 | 1005.2 |
| 20260504024558 | 78 | 134 | 0.0 | 0.0 | 0.00 | 0.00 | 0.00 | 43 | 1005.1 |
| 20260504023055 | 79 | 134 | 0.0 | 0.0 | 0.00 | 0.00 | 0.00 | 42 | 1005.0 |
| 20260504021557 | 80 | 134 | 0.0 | 0.0 | 0.00 | 0.00 | 0.00 | 41 | 1005.1 |
| 20260504020104 | 81 | 160 | 0.0 | 0.0 | 0.00 | 0.00 | 0.00 | 40 | 1005.1 |
| 20260504014556 | 81 | 142 | 0.0 | 0.0 | 0.00 | 0.00 | 0.00 | 40 | 1005.1 |
| 20260504013051 | 82 | 108 | 0.0 | 1.0 | 0.00 | 0.00 | 0.00 | 39 | 1005.2 |
| 20260504011550 | 82 | 121 | 0.0 | 3.0 | 0.00 | 0.00 | 0.00 | 39 | 1005.3 |
| 20260504010049 | 82 | 146 | 0.0 | 0.0 | 0.00 | 0.00 | 0.00 | 38 | 1005.4 |
| 20260504004547 | 83 | 116 | 0.0 | 8.0 | 0.00 | 0.00 | 0.00 | 37 | 1005.5 |